Temperature
17 17 17 17 21 22 22 22 22 21 21 20 19 20 21 21 21 20 16 16 16 15 15 15 15 15 15 15 15 15 15 15 15 15 15 15 15 15 15 14 14 14 14 14 14 14 14 14 14
17 17 17 19 22 22 22 22 21 21 20 18 18 19 20 19 17 16 15 16 15 15 15 15 15 15 15 15 15 15 15 15 15 15 15 15 14 14 14 14 14 14 14 14 14 14 14 14 14
16 17 18 20 21 22 22 21 21 19 18 18 19 18 19 18 15 15 15 15 15 15 14 14 15 14 15 14 14 14 14 14 15 15 15 14 14 14 14 14 14 14 14 14 14 14 14 14 14
16 17 18 20 20 21 21 21 20 19 18 17 18 19 16 15 14 15 15 15 15 14 14 14 14 14 14 14 14 14 14 14 14 14 14 14 14 14 14 14 14 14 14 14 14 14 14 14 14
16 18 20 19 20 20 20 19 18 20 19 18 18 19 17 14 15 15 15 15 14 14 14 14 14 14 14 14 14 14 14 14 14 14 14 14 14 14 14 14 14 13 14 13 14 13 13 13 13
16 19 20 20 20 19 19 17 18 19 19 17 17 18 16 14 15 15 15 14 14 14 14 14 14 14 14 14 14 14 14 14 14 14 14 14 14 14 14 14 13 13 13 13 13 13 13 13 13
17 18 19 19 19 19 19 17 18 19 19 17 17 18 16 14 14 14 14 14 14 14 14 13 14 14 14 14 13 13 13 13 13 13 13 13 13 13 13 13 13 13 13 13 13 13 13 13 13
15 18 18 18 19 19 17 16 16 17 17 15 15 17 16 13 14 14 14 13 13 13 13 13 13 13 13 13 13 13 13 13 13 13 13 13 13 13 13 13 13 13 13 13 13 13 13 13 13
14 17 18 18 18 18 16 16 15 14 15 14 14 14 14 14 14 13 13 13 13 13 13 13 13 13 13 13 13 13 13 13 13 13 13 13 12 12 12 12 13 13 13 13 13 13 13 12 12
15 16 17 16 17 16 15 15 15 15 15 15 13 13 13 13 13 13 13 13 13 13 13 13 13 13 13 13 13 12 12 12 12 12 12 12 12 12 12 12 12 12 12 12 12 12 12 12 12
14 15 15 14 14 14 14 14 14 15 16 15 14 13 12 12 12 13 13 12 13 13 13 13 13 13 12 12 12 12 12 12 12 12 12 12 12 12 12 12 12 12 12 12 12 12 12 11 11
13 13 13 13 12 12 13 13 13 13 14 13 13 12 12 12 12 12 12 12 12 12 12 12 12 12 12 12 12 12 12 12 12 12 12 11 12 12 11 12 11 11 11 11 11 11 11 11 11
13 13 12 11 11 11 12 12 13 13 12 12 12 12 12 12 12 12 12 12 12 12 12 12 12 12 12 12 12 12 12 11 11 11 11 11 11 11 11 11 11 11 11 11 11 11 11 11 11
12 12 12 11 11 11 12 12 12 12 11 11 11 11 11 11 11 11 11 11 11 11 12 12 12 12 12 12 12 11 11 11 11 11 11 11 11 11 11 11 11 11 10 10 10 10 10 10 10
11 12 12 12 12 11 12 13 12 12 11 11 11 11 11 11 11 11 11 11 11 11 11 11 11 11 11 11 11 11 11 11 11 11 11 11 10 10 10 10 10 10 10 10 10 10 10 10 10
12 13 13 12 11 11 12 13 13 11 11 11 11 10 10 10 10 11 11 11 11 11 11 11 11 11 11 11 11 11 10 10 10 10 10 10 10 10 10 10 10 10 10 10 9 9 9 9 9
12 13 13 12 11 11 12 13 13 11 10 11 11 10 10 10 10 10 10 10 10 11 11 11 11 11 11 10 10 10 10 10 10 10 10 10 10 10 9 9 9 9 9 9 9 9 9 8 8
13 13 12 12 11 11 11 12 12 11 10 11 11 10 10 9 9 9 10 10 10 10 10 10 10 10 10 10 10 10 10 10 10 10 9 9 9 9 9 9 9 9 8 8 8 8 8 8 8
12 12 12 12 10 10 11 11 12 11 10 11 10 10 10 9 9 9 9 9 10 10 10 10 10 10 10 10 10 9 9 9 9 9 9 9 9 9 9 8 8 8 8 8 8 8 8 8 7
10 11 11 11 9 10 10 11 11 11 10 10 10 9 9 8 8 8 9 9 9 9 10 10 10 10 9 9 9 9 9 9 9 9 9 8 8 8 8 8 8 8 8 7 7 7 7 7 7
10 10 11 10 9 9 10 11 12 11 10 9 9 8 8 8 8 8 8 9 9 9 9 9 9 9 9 9 9 8 8 8 8 8 8 8 8 8 7 7 7 7 7 7 7 7 6 6 6
10 9 9 9 9 10 10 11 12 11 10 10 9 8 8 7 7 7 7 8 8 8 8 8 8 8 8 8 8 8 8 8 8 8 8 7 7 7 7 7 7 6 6 6 6 6 6 6 5
9 8 8 8 9 9 9 9 12 11 10 10 9 8 7 6 6 6 7 7 8 8 8 8 8 8 8 8 8 7 7 7 7 7 7 7 7 7 6 6 6 6 6 6 6 6 5 5 5
7 8 8 8 8 8 9 10 12 11 11 11 10 8 6 6 6 6 6 6 7 7 7 7 7 7 7 7 7 7 7 7 7 7 6 6 6 6 6 6 6 5 5 5 5 5 5 5 4
8 8 8 8 8 9 8 9 11 11 10 9 9 7 6 5 5 5 5 6 6 6 6 7 7 7 7 6 6 6 6 6 6 6 6 6 6 5 5 5 5 5 5 5 5 5 5 4 4
7 8 9 9 10 10 8 9 11 9 8 7 7 6 5 5 5 5 5 5 5 6 6 6 6 6 6 6 6 6 6 6 5 5 5 5 5 5 5 5 5 5 5 5 5 4 4 4 4
7 7 8 8 7 8 10 10 10 8 7 7 6 6 5 5 4 4 5 5 5 5 5 5 5 5 5 5 5 5 5 5 5 5 4 4 4 4 4 4 4 4 4 4 4 4 4 3 3
6 7 6 7 8 9 10 10 10 8 8 7 7 6 5 4 4 4 4 4 4 5 5 5 5 4 4 5 5 5 5 4 4 4 4 4 4 4 4 4 4 4 4 3 3 3 3 3 3
5 5 6 7 7 8 9 10 9 8 7 7 6 5 4 4 4 3 4 4 4 4 4 4 4 4 4 4 4 4 4 4 4 4 3 3 3 3 3 3 3 3 3 3 3 3 3 2 2
5 6 6 6 6 6 8 10 7 7 6 6 5 4 4 3 3 3 3 3 3 3 3 3 3 3 3 3 3 3 3 3 3 3 3 3 3 3 3 3 3 2 2 2 2 2 2 2 2
Wind_Speed
4 2 2 3 4 5 7 5 3 3 3 1 1 2 2 1 0 2 3 4 5 8 10 11 9 10 10 11 11 10 10 9 8 9 9 9 9 9 9 9 9 9 9 9 9 10 10 10 10
2 1 3 3 6 8 7 5 5 3 2 3 3 2 2 2 2 3 3 3 5 8 9 10 10 10 10 10 10 10 9 9 8 8 8 8 8 9 9 9 8 8 9 9 9 9 9 9 9
2 2 3 3 6 9 6 3 4 3 3 3 3 1 1 2 2 2 2 4 6 8 8 10 10 9 10 10 10 9 9 8 8 8 7 8 8 8 8 8 8 8 8 9 9 8 8 8 8
2 3 3 5 9 7 5 3 3 4 4 2 3 3 2 3 2 2 4 5 7 8 8 10 10 10 10 9 9 9 9 8 8 8 8 8 8 8 8 8 8 8 8 8 8 8 8 7 7
2 3 5 7 9 6 4 2 3 4 4 4 3 3 4 3 3 4 5 6 7 8 8 10 10 10 10 9 9 9 9 9 8 8 8 8 8 8 7 7 7 7 7 7 7 7 7 6 6
3 3 6 10 9 6 4 3 4 4 4 3 3 3 3 3 4 4 5 6 6 7 7 9 10 9 10 9 9 8 9 8 8 8 8 8 8 7 7 7 6 6 6 6 6 6 5 5 5
3 4 7 8 8 7 4 3 4 5 5 3 2 3 3 3 4 4 5 6 6 7 7 7 8 8 9 9 8 8 8 8 8 7 7 8 7 7 6 6 6 5 5 5 5 4 4 4 4
1 3 6 7 7 6 2 3 2 3 3 1 2 3 3 4 4 5 6 6 6 6 5 6 6 7 7 7 8 8 8 8 7 7 7 7 6 6 5 5 5 5 5 4 4 4 4 4 4
2 5 8 7 5 3 2 3 2 1 2 2 1 1 3 6 7 7 6 5 5 5 4 4 5 5 5 6 7 7 7 7 7 6 6 5 4 3 4 4 4 4 4 4 4 4 3 3 3
3 6 7 3 2 1 2 1 1 3 3 3 2 2 4 7 8 7 7 7 6 5 4 3 4 4 4 5 5 5 5 5 4 4 4 3 2 2 2 4 4 4 4 4 3 3 2 1 1
3 5 3 2 1 0 1 1 1 4 4 5 5 4 5 7 7 7 7 6 6 5 4 3 3 4 4 3 3 3 3 3 3 3 2 2 2 2 2 2 3 3 3 2 2 2 1 1 0
3 3 3 2 1 1 1 1 1 3 4 2 2 3 6 7 7 7 7 6 5 5 4 3 3 3 3 3 3 3 2 2 2 2 2 2 1 1 1 1 1 1 1 1 1 1 1 1 2
5 3 2 1 1 1 2 3 4 5 5 3 2 3 6 7 7 6 6 5 5 4 4 3 3 3 3 3 2 2 2 2 2 2 2 1 1 1 1 1 1 1 1 1 1 1 1 2 2
4 4 3 2 3 3 4 5 5 6 3 3 3 4 6 6 7 6 6 6 5 4 4 3 2 3 3 2 2 2 2 2 2 2 2 1 1 1 1 0 0 1 1 1 2 2 2 2 2
3 3 3 4 4 2 3 6 8 6 3 4 4 3 4 5 5 6 6 5 5 4 3 3 3 3 3 2 2 2 2 1 1 1 2 2 1 1 1 1 1 1 2 2 2 2 2 2 2
4 5 5 3 3 3 5 10 6 3 4 6 5 4 4 4 5 4 4 4 4 4 4 3 3 3 3 2 2 2 2 2 1 1 1 2 2 2 1 1 1 1 1 1 2 2 2 2 2
5 7 8 4 2 3 6 8 4 3 5 6 5 5 4 4 4 3 3 4 4 4 4 4 3 3 3 3 2 2 2 2 2 1 1 1 1 2 1 1 1 1 1 1 2 2 2 2 2
7 7 7 7 2 4 7 9 6 4 5 6 6 5 4 4 4 3 3 3 3 3 3 4 3 3 3 2 2 2 1 1 1 1 0 1 2 1 1 1 1 1 1 1 2 2 2 2 2
5 7 8 6 2 4 9 10 10 8 6 6 6 5 5 4 2 2 2 3 3 3 4 3 3 3 3 2 2 1 1 0 0 1 0 1 1 1 1 1 1 1 2 2 2 2 2 2 1
6 7 8 5 2 4 8 11 10 8 7 7 6 5 5 4 3 3 3 3 4 4 4 3 3 3 3 2 2 1 1 1 1 1 1 0 1 2 2 2 2 2 2 2 2 2 2 1 1
8 9 8 5 3 3 6 9 9 7 6 5 5 5 4 4 4 3 3 4 4 4 4 3 3 3 3 2 2 2 1 1 1 1 1 0 1 2 3 3 3 3 3 3 3 3 3 3 2
7 6 6 5 5 4 4 7 8 6 5 5 4 4 3 3 3 3 3 3 3 3 3 3 3 3 3 3 3 3 3 3 2 2 1 1 1 1 2 3 3 3 3 4 4 4 4 4 3
3 1 4 5 6 5 6 7 6 4 6 6 5 3 2 1 2 2 2 3 3 2 2 2 2 2 2 3 3 3 3 2 1 1 2 2 1 1 2 2 3 4 4 4 4 4 4 4 4
3 2 1 2 4 6 8 8 7 6 7 6 5 4 2 1 1 1 1 1 2 2 1 2 2 2 2 2 3 3 3 3 2 2 2 1 1 2 2 3 3 4 4 5 5 5 5 5 5
5 4 2 4 5 7 4 7 7 3 4 5 5 5 3 2 1 1 1 1 1 1 1 1 2 2 2 2 3 3 4 3 3 3 2 2 2 2 3 3 3 3 4 4 4 5 5 5 5
8 7 5 5 6 5 5 8 5 1 2 3 3 4 3 2 1 1 1 1 1 1 1 2 2 2 2 2 3 3 3 3 2 3 3 3 2 2 3 3 3 4 3 3 3 4 4 4 4
5 7 5 3 4 6 7 6 5 2 2 2 3 4 3 2 1 1 1 1 1 0 0 1 2 2 2 2 3 3 3 3 3 3 3 3 2 2 3 3 3 3 3 3 2 2 2 3 3
3 4 4 5 5 8 8 8 6 5 5 4 4 4 2 2 1 1 1 1 0 0 1 1 1 2 2 2 2 2 3 3 3 3 3 2 2 2 2 2 2 2 2 2 2 2 3 3 3
5 5 4 4 5 6 7 5 2 5 5 5 5 3 2 2 1 1 1 0 1 1 1 1 1 1 2 2 2 2 2 2 2 2 2 2 2 2 2 2 2 2 2 2 3 3 3 3 3
6 7 7 6 6 6 7 6 1 2 3 4 4 3 2 2 1 1 1 1 1 1 1 1 1 1 2 2 2 2 2 2 2 2 2 2 2 2 3 2 3 3 3 3 3 3 3 4 4
Wind_Direction
319 280 227 224 216 219 229 215 207 177 185 158 138 182 201 202 312 69 76 125 134 149 152 151 146 144 143 140 136 132 127 122 116 113 112 108 107 107 104 100 94 91 91 88 86 85 81 82 83
303 241 212 222 227 220 219 215 203 189 143 143 153 169 173 134 53 79 117 131 146 147 148 147 136 141 141 140 139 134 130 127 123 118 115 113 110 107 108 103 97 92 92 91 89 86 83 82 84
233 248 218 208 224 229 219 191 198 164 153 178 171 186 229 91 93 100 107 147 145 142 139 131 130 133 134 139 138 134 130 128 125 120 116 113 108 106 108 105 98 93 93 91 90 87 83 81 81
215 194 208 221 220 229 231 174 164 169 169 189 188 154 130 55 48 74 116 142 142 138 135 125 125 123 125 128 131 130 128 124 120 116 112 110 105 101 100 102 98 96 96 93 90 86 82 80 79
219 212 205 219 230 226 231 264 211 197 180 173 190 170 138 88 50 89 120 135 141 137 131 127 120 118 117 118 120 121 123 120 116 114 112 107 102 98 96 98 97 96 96 96 92 89 85 82 79
190 212 218 223 223 221 220 233 212 213 187 162 183 179 136 91 92 106 119 126 134 137 132 129 123 118 118 117 114 115 115 115 114 113 110 104 99 98 97 96 94 95 95 96 93 91 88 84 82
208 210 227 229 228 225 214 204 220 219 208 192 197 176 143 123 107 122 128 125 122 124 129 129 136 131 122 116 115 112 111 107 109 109 108 104 99 97 96 98 93 92 92 95 95 92 91 88 85
235 212 222 224 227 230 191 188 226 232 219 136 200 202 160 143 130 129 125 123 123 120 125 125 130 136 137 129 115 111 108 103 104 106 106 108 106 104 99 105 96 92 89 89 91 91 91 92 91
207 219 227 225 223 216 164 195 189 234 174 147 168 11 64 129 140 137 132 131 132 130 132 133 132 130 138 136 127 122 114 109 113 112 113 124 131 128 121 102 100 99 94 91 90 89 93 103 111
195 220 233 244 238 203 144 205 203 186 200 210 184 115 112 140 152 156 160 161 159 155 153 147 144 139 137 136 139 139 135 130 130 125 127 137 139 137 133 117 112 107 103 101 94 96 115 169 148
191 220 220 211 211 213 206 228 254 218 227 232 223 189 157 161 167 174 177 174 171 163 154 150 150 145 140 128 137 136 138 138 135 127 129 131 133 142 148 145 149 145 144 143 131 158 178 216 216
185 215 227 225 208 230 249 253 252 242 253 338 284 201 173 178 183 186 184 180 174 166 158 150 147 144 144 135 135 140 135 133 130 131 141 149 136 143 140 165 182 185 192 193 197 222 243 251 249
207 204 204 225 227 229 246 254 268 264 276 290 270 197 191 191 194 194 185 178 175 173 169 158 146 143 141 138 130 138 147 149 145 140 154 158 139 147 142 140 166 233 247 234 233 236 244 248 251
185 187 208 235 236 236 243 259 253 259 277 256 241 221 210 204 200 193 189 185 183 179 175 167 155 146 144 145 142 132 144 161 158 148 157 169 176 157 151 162 219 245 252 260 265 269 266 263 259
169 196 225 233 233 230 248 250 234 246 249 246 241 232 220 213 202 201 198 195 189 181 173 160 151 141 136 131 129 109 107 126 148 157 170 170 181 188 200 230 226 252 254 250 257 271 274 277 274
182 211 228 206 216 223 230 249 233 237 240 244 244 234 218 210 205 205 201 196 188 178 170 161 151 150 144 142 143 128 121 113 128 170 174 178 190 201 210 229 249 265 256 255 254 257 258 262 269
202 225 233 226 195 219 226 253 246 252 244 246 247 240 227 216 212 205 199 196 188 182 173 165 165 162 152 145 134 116 105 101 94 111 135 174 200 209 214 242 264 267 266 256 253 254 256 262 269
213 221 231 231 214 226 235 252 263 270 256 252 249 242 232 226 223 210 196 188 177 173 170 168 165 165 157 145 129 109 95 82 76 86 133 203 203 210 225 226 252 247 258 265 261 261 259 265 270
223 227 242 249 256 240 244 257 265 271 262 257 252 247 240 239 227 198 179 176 168 165 169 171 169 167 164 159 163 176 189 180 100 62 45 239 235 214 213 240 239 249 242 255 263 258 252 264 282
218 231 247 257 261 260 263 264 262 255 252 253 252 250 246 242 222 199 185 179 178 176 175 171 175 175 178 183 185 198 190 203 191 131 108 257 249 233 224 231 244 249 248 252 260 247 244 245 230
229 236 243 255 280 247 275 262 243 235 240 248 250 247 243 234 231 218 203 195 191 187 187 182 180 179 179 174 160 152 162 178 200 209 214 235 259 247 239 232 235 242 245 247 249 243 238 238 230
238 242 238 240 257 256 250 268 246 226 228 230 234 236 238 232 226 219 211 205 202 202 195 189 182 182 178 176 184 194 208 218 232 236 235 248 244 257 255 248 242 242 241 244 246 242 242 237 238
232 205 225 234 244 260 234 251 258 214 231 230 223 220 215 219 222 216 209 207 199 194 192 192 183 184 184 188 193 205 219 232 234 233 233 248 250 255 267 267 257 249 246 246 247 245 242 238 241
171 158 174 218 229 247 228 233 261 222 227 226 219 215 210 187 149 144 152 161 166 163 173 188 185 190 190 196 202 210 215 219 224 237 238 249 261 272 271 268 269 262 250 243 242 242 242 240 240
202 199 212 219 225 241 205 233 250 231 229 231 221 209 200 185 157 126 129 148 153 164 178 190 197 200 197 202 215 225 227 226 227 237 244 249 255 269 272 273 263 260 257 253 246 241 241 239 238
205 214 220 238 245 248 220 234 238 240 266 253 224 200 191 188 185 170 140 138 148 162 190 206 214 220 224 221 229 234 232 235 241 245 248 246 249 258 271 268 266 264 261 261 255 251 247 243 239
193 215 239 248 272 264 238 243 253 235 232 218 201 189 185 187 184 177 150 130 146 148 222 230 220 230 242 249 243 240 242 242 244 250 249 249 256 267 266 269 269 270 268 261 257 250 249 248 250
230 186 190 211 234 249 248 242 232 207 214 209 200 192 184 179 173 175 166 149 109 79 48 18 255 245 253 255 259 257 250 250 251 252 253 256 262 271 272 277 278 275 271 267 257 249 243 241 250
184 193 207 212 241 247 255 245 222 216 213 215 214 211 198 184 166 157 157 125 73 64 55 38 351 278 264 265 267 271 275 261 254 257 260 258 258 260 261 268 270 268 268 268 262 257 247 243 251
227 217 202 218 227 237 260 259 88 235 219 214 213 209 200 187 166 142 113 83 64 46 34 16 348 310 283 271 265 267 273 276 263 261 267 261 259 261 265 265 263 268 269 265 259 261 259 253 252
Height
1515 1515 1517 1519 1517 1513 1510 1509 1509 1512 1513 1516 1516 1516 1515 1516 1518 1524 1524 1523 1524 1526 1528 1529 1530 1532 1533 1534 1535 1535 1536 1537 1537 1537 1537 1537 1537 1537 1537 1537 1537 1537 1537 1537 1537 1536 1536 1536 1536
1514 1516 1518 1518 1512 1511 1510 1508 1511 1512 1515 1517 1518 1518 1517 1519 1521 1522 1522 1523 1524 1526 1528 1529 1530 1532 1533 1534 1535 1536 1536 1537 1537 1538 1538 1538 1538 1538 1538 1538 1538 1538 1538 1537 1537 1537 1537 1537 1536
1514 1516 1518 1514 1510 1507 1507 1509 1511 1514 1516 1517 1518 1518 1519 1521 1522 1522 1522 1523 1524 1526 1528 1529 1531 1532 1533 1534 1535 1536 1536 1537 1537 1538 1538 1538 1538 1538 1538 1538 1538 1538 1538 1538 1538 1538 1538 1537 1537
1515 1517 1517 1513 1510 1508 1508 1510 1513 1514 1516 1517 1517 1518 1520 1521 1522 1522 1522 1523 1525 1526 1528 1529 1530 1532 1533 1534 1535 1535 1536 1537 1537 1538 1538 1538 1539 1539 1539 1539 1539 1539 1539 1539 1538 1538 1538 1538 1537
1515 1515 1512 1511 1509 1510 1512 1513 1514 1513 1514 1517 1517 1517 1520 1521 1520 1521 1522 1523 1525 1526 1528 1529 1530 1532 1533 1534 1535 1535 1536 1537 1537 1538 1538 1538 1539 1539 1539 1539 1539 1539 1539 1539 1539 1539 1538 1538 1538
1515 1513 1509 1508 1508 1510 1512 1515 1515 1514 1514 1517 1518 1518 1520 1520 1520 1521 1522 1523 1525 1526 1528 1529 1530 1531 1532 1533 1534 1535 1535 1536 1537 1537 1538 1538 1538 1539 1539 1539 1539 1539 1539 1539 1538 1538 1538 1538 1538
1514 1511 1507 1507 1508 1509 1512 1515 1515 1513 1514 1517 1518 1518 1519 1520 1520 1521 1522 1523 1524 1526 1527 1529 1530 1531 1532 1533 1534 1534 1535 1536 1536 1537 1537 1538 1538 1538 1538 1539 1539 1539 1539 1538 1538 1538 1538 1538 1537
1513 1512 1509 1508 1508 1509 1513 1515 1515 1515 1515 1517 1518 1517 1519 1520 1519 1520 1521 1523 1524 1525 1526 1528 1529 1530 1531 1532 1533 1534 1534 1535 1536 1536 1537 1537 1537 1538 1538 1538 1538 1538 1538 1538 1538 1538 1537 1537 1537
1513 1513 1508 1508 1509 1510 1514 1515 1516 1516 1516 1517 1517 1518 1518 1518 1518 1520 1521 1522 1523 1524 1525 1526 1528 1529 1530 1531 1532 1533 1533 1534 1535 1536 1536 1536 1537 1537 1537 1537 1537 1537 1537 1537 1537 1537 1536 1536 1536
1513 1510 1508 1511 1512 1512 1514 1515 1515 1516 1515 1516 1517 1517 1516 1517 1518 1519 1520 1521 1522 1523 1524 1525 1526 1528 1529 1530 1531 1532 1533 1533 1534 1535 1535 1535 1536 1536 1536 1536 1536 1536 1536 1536 1536 1536 1535 1535 1535
1512 1511 1512 1514 1515 1515 1515 1516 1516 1515 1514 1515 1516 1516 1516 1516 1517 1518 1519 1520 1521 1522 1523 1524 1525 1526 1528 1528 1530 1531 1531 1532 1533 1533 1534 1534 1534 1534 1535 1535 1535 1535 1535 1535 1534 1534 1534 1533 1533
1513 1514 1514 1515 1515 1516 1516 1516 1516 1515 1515 1515 1515 1515 1515 1515 1515 1516 1517 1519 1520 1521 1521 1523 1523 1525 1526 1527 1528 1529 1530 1531 1531 1531 1532 1533 1533 1533 1533 1533 1533 1533 1533 1533 1533 1532 1532 1532 1532
1512 1514 1515 1516 1516 1516 1516 1516 1516 1514 1514 1514 1514 1514 1514 1514 1515 1516 1517 1518 1518 1519 1520 1521 1522 1524 1525 1526 1527 1527 1528 1529 1529 1530 1530 1531 1531 1531 1531 1531 1531 1531 1531 1531 1531 1531 1530 1530 1530
1512 1513 1514 1515 1515 1516 1516 1515 1515 1512 1513 1513 1512 1512 1512 1512 1513 1514 1515 1516 1517 1518 1519 1520 1521 1522 1524 1525 1525 1526 1527 1527 1528 1528 1528 1529 1529 1529 1529 1529 1529 1529 1529 1529 1529 1528 1528 1528 1527
1512 1513 1513 1514 1514 1515 1515 1512 1511 1511 1512 1511 1511 1510 1510 1511 1511 1512 1513 1514 1515 1516 1518 1519 1520 1521 1522 1523 1524 1524 1525 1525 1526 1526 1526 1526 1527 1527 1527 1527 1527 1527 1527 1526 1526 1526 1525 1525 1525
1511 1510 1508 1510 1513 1514 1515 1506 1508 1510 1510 1510 1509 1509 1509 1509 1509 1510 1511 1512 1513 1515 1516 1517 1518 1519 1520 1521 1522 1522 1523 1523 1523 1523 1523 1524 1524 1524 1524 1524 1524 1524 1524 1524 1523 1523 1523 1522 1522
1508 1506 1504 1508 1511 1512 1511 1505 1506 1508 1508 1508 1508 1507 1507 1507 1508 1508 1509 1510 1511 1513 1514 1515 1517 1518 1519 1519 1520 1520 1520 1521 1521 1521 1521 1521 1521 1521 1522 1522 1521 1521 1521 1521 1521 1520 1520 1519 1519
1503 1503 1503 1505 1508 1510 1508 1505 1505 1507 1507 1506 1505 1506 1506 1505 1505 1506 1507 1508 1509 1511 1512 1513 1514 1516 1517 1517 1518 1518 1518 1518 1518 1518 1519 1519 1519 1519 1519 1519 1518 1518 1518 1518 1518 1517 1517 1517 1516
1502 1502 1502 1505 1509 1509 1505 1504 1503 1504 1504 1503 1503 1503 1503 1503 1503 1504 1505 1506 1507 1508 1510 1511 1512 1513 1514 1514 1515 1515 1515 1516 1516 1516 1516 1516 1516 1516 1516 1515 1515 1515 1515 1515 1515 1515 1514 1514 1513
1505 1505 1503 1506 1510 1508 1504 1502 1500 1501 1502 1501 1501 1501 1501 1501 1501 1502 1502 1504 1505 1506 1507 1508 1510 1511 1511 1512 1512 1513 1513 1513 1513 1513 1513 1513 1513 1513 1512 1512 1512 1512 1512 1512 1512 1512 1511 1511 1511
1505 1504 1503 1506 1509 1508 1506 1496 1494 1496 1499 1499 1499 1499 1499 1499 1499 1499 1500 1501 1502 1503 1504 1505 1507 1508 1509 1509 1510 1510 1510 1510 1510 1510 1510 1510 1510 1510 1509 1509 1509 1509 1509 1509 1508 1508 1508 1508 1508
1503 1505 1506 1508 1507 1502 1505 1493 1486 1490 1494 1495 1496 1496 1496 1497 1497 1497 1497 1498 1499 1501 1502 1503 1504 1505 1506 1506 1507 1507 1507 1507 1507 1507 1507 1507 1507 1506 1506 1506 1505 1506 1506 1505 1505 1505 1505 1505 1504
1504 1507 1508 1507 1506 1506 1502 1500 1482 1488 1489 1490 1492 1494 1495 1495 1495 1495 1495 1496 1497 1498 1499 1500 1501 1502 1503 1503 1504 1504 1504 1504 1504 1504 1504 1504 1504 1503 1503 1503 1502 1502 1502 1502 1501 1501 1501 1501 1501
1508 1508 1509 1508 1506 1505 1497 1496 1480 1482 1483 1485 1489 1492 1493 1494 1494 1494 1493 1494 1494 1495 1496 1497 1498 1499 1500 1500 1500 1501 1501 1501 1501 1501 1501 1501 1500 1500 1500 1499 1499 1498 1498 1498 1498 1497 1497 1497 1497
1506 1505 1504 1503 1501 1492 1496 1493 1480 1479 1483 1485 1487 1489 1491 1492 1492 1492 1491 1492 1492 1492 1493 1494 1495 1496 1497 1497 1498 1498 1498 1498 1498 1498 1497 1497 1497 1496 1496 1496 1495 1495 1495 1494 1494 1494 1493 1493 1493
1503 1500 1499 1495 1488 1483 1496 1487 1477 1483 1485 1485 1487 1488 1489 1490 1490 1490 1490 1490 1490 1491 1491 1491 1492 1493 1494 1494 1494 1494 1494 1494 1494 1495 1494 1494 1493 1493 1493 1492 1492 1492 1491 1490 1490 1489 1489 1489 1489
1501 1499 1499 1499 1501 1492 1480 1479 1478 1482 1483 1484 1485 1486 1487 1488 1488 1488 1488 1488 1488 1488 1488 1489 1489 1490 1490 1491 1491 1491 1491 1491 1491 1491 1491 1490 1490 1489 1489 1489 1488 1488 1487 1487 1486 1485 1485 1485 1484
1501 1499 1501 1499 1494 1483 1473 1473 1470 1477 1479 1481 1482 1483 1485 1486 1486 1486 1486 1486 1486 1486 1486 1486 1487 1487 1487 1487 1488 1488 1488 1488 1488 1487 1487 1487 1486 1486 1486 1485 1485 1484 1483 1483 1482 1481 1481 1481 1480
1501 1501 1498 1495 1492 1482 1473 1467 1471 1474 1477 1479 1481 1482 1483 1484 1484 1484 1484 1484 1484 1484 1484 1484 1484 1484 1484 1484 1484 1484 1484 1484 1484 1484 1484 1483 1483 1482 1482 1482 1481 1480 1480 1479 1478 1478 1477 1477 1476
1497 1494 1494 1493 1493 1490 1478 1470 1476 1476 1478 1479 1480 1481 1482 1482 1483 1483 1483 1483 1482 1482 1482 1482 1482 1481 1481 1481 1481 1481 1481 1480 1480 1480 1480 1480 1479 1479 1479 1478 1477 1477 1476 1476 1475 1474 1474 1473 1473